QPF
0.00 0.00 0.00 0.00 0.00 0.01 0.02 0.03 0.04 0.03 0.05 0.08 0.08 0.08 0.08 0.09 0.08 0.07 0.05 0.05 0.05 0.05 0.08 0.09 0.09 0.08 0.07 0.07 0.07 0.10 0.10 0.09 0.10 0.13 0.13 0.09 0.08 0.08 0.06 0.06 0.07 0.05 0.04
0.00 0.00 0.00 0.00 0.00 0.00 0.01 0.02 0.03 0.03 0.03 0.05 0.07 0.07 0.07 0.07 0.07 0.07 0.07 0.04 0.04 0.04 0.06 0.09 0.10 0.08 0.09 0.08 0.08 0.09 0.09 0.08 0.08 0.12 0.16 0.15 0.14 0.11 0.08 0.08 0.07 0.06 0.07
0.00 0.00 0.00 0.00 0.00 0.01 0.00 0.01 0.02 0.02 0.03 0.04 0.05 0.07 0.07 0.06 0.07 0.07 0.07 0.04 0.03 0.03 0.05 0.07 0.08 0.08 0.09 0.10 0.08 0.08 0.09 0.09 0.09 0.10 0.14 0.17 0.19 0.17 0.13 0.08 0.05 0.06 0.07
0.00 0.00 0.00 0.00 0.00 0.00 0.00 0.00 0.01 0.02 0.02 0.02 0.03 0.05 0.05 0.06 0.07 0.06 0.07 0.05 0.03 0.02 0.03 0.04 0.06 0.07 0.09 0.11 0.09 0.10 0.12 0.13 0.12 0.11 0.11 0.12 0.16 0.17 0.17 0.12 0.06 0.05 0.05
0.00 0.00 0.00 0.00 0.00 0.00 0.00 0.01 0.02 0.02 0.02 0.01 0.03 0.04 0.04 0.05 0.06 0.06 0.08 0.06 0.04 0.03 0.02 0.02 0.05 0.07 0.09 0.09 0.10 0.12 0.12 0.12 0.12 0.11 0.10 0.11 0.13 0.13 0.15 0.16 0.13 0.08 0.05
0.00 0.00 0.00 0.00 0.00 0.00 0.00 0.01 0.02 0.03 0.03 0.03 0.03 0.03 0.04 0.05 0.07 0.08 0.08 0.08 0.06 0.05 0.04 0.04 0.05 0.07 0.08 0.08 0.09 0.09 0.10 0.10 0.11 0.10 0.10 0.10 0.11 0.13 0.14 0.15 0.14 0.11 0.08
0.00 0.00 0.00 0.00 0.00 0.01 0.01 0.02 0.03 0.03 0.04 0.04 0.03 0.03 0.04 0.05 0.05 0.06 0.07 0.07 0.06 0.05 0.05 0.05 0.07 0.07 0.07 0.06 0.07 0.08 0.09 0.09 0.09 0.09 0.09 0.09 0.10 0.12 0.13 0.14 0.13 0.13 0.12
0.00 0.00 0.01 0.01 0.01 0.01 0.01 0.01 0.02 0.03 0.03 0.04 0.04 0.04 0.04 0.05 0.04 0.05 0.05 0.05 0.04 0.04 0.04 0.05 0.05 0.05 0.04 0.04 0.06 0.06 0.07 0.07 0.07 0.07 0.08 0.07 0.07 0.08 0.10 0.12 0.12 0.11 0.11
0.00 0.00 0.01 0.01 0.01 0.02 0.05 0.03 0.01 0.02 0.02 0.02 0.03 0.04 0.03 0.03 0.03 0.03 0.03 0.03 0.04 0.03 0.05 0.06 0.06 0.06 0.04 0.04 0.04 0.06 0.06 0.07 0.06 0.06 0.07 0.06 0.06 0.05 0.05 0.07 0.09 0.11 0.11
0.00 0.00 0.01 0.01 0.02 0.05 0.13 0.08 0.02 0.02 0.02 0.01 0.01 0.02 0.03 0.02 0.02 0.02 0.02 0.02 0.03 0.03 0.05 0.06 0.06 0.06 0.04 0.03 0.04 0.04 0.06 0.07 0.07 0.07 0.07 0.06 0.07 0.06 0.04 0.05 0.07 0.09 0.10
0.00 0.01 0.02 0.02 0.02 0.04 0.08 0.04 0.02 0.02 0.01 0.01 0.02 0.03 0.03 0.02 0.02 0.02 0.01 0.02 0.03 0.04 0.05 0.06 0.05 0.04 0.04 0.04 0.04 0.05 0.05 0.05 0.06 0.06 0.06 0.05 0.07 0.07 0.05 0.05 0.07 0.07 0.09
0.01 0.01 0.01 0.01 0.01 0.01 0.01 0.02 0.02 0.02 0.02 0.02 0.03 0.03 0.02 0.02 0.02 0.02 0.02 0.02 0.03 0.03 0.04 0.04 0.03 0.03 0.04 0.04 0.04 0.03 0.04 0.04 0.04 0.04 0.05 0.05 0.06 0.07 0.06 0.07 0.08 0.09 0.09
0.00 0.01 0.01 0.01 0.01 0.01 0.01 0.01 0.01 0.01 0.01 0.01 0.01 0.02 0.02 0.02 0.01 0.01 0.02 0.03 0.03 0.02 0.02 0.03 0.03 0.03 0.03 0.04 0.04 0.04 0.03 0.03 0.03 0.03 0.04 0.05 0.05 0.05 0.06 0.05 0.05 0.08 0.08
0.00 0.01 0.01 0.01 0.01 0.01 0.01 0.01 0.01 0.00 0.00 0.01 0.01 0.01 0.01 0.01 0.01 0.01 0.03 0.03 0.03 0.03 0.03 0.05 0.05 0.05 0.04 0.04 0.03 0.03 0.03 0.03 0.03 0.03 0.03 0.03 0.03 0.04 0.05 0.05 0.05 0.05 0.06
0.01 0.01 0.01 0.01 0.00 0.00 0.00 0.01 0.01 0.01 0.01 0.01 0.01 0.01 0.01 0.01 0.01 0.02 0.03 0.03 0.03 0.04 0.04 0.05 0.05 0.05 0.04 0.03 0.03 0.02 0.02 0.03 0.02 0.02 0.02 0.02 0.01 0.02 0.02 0.02 0.03 0.03 0.05
0.02 0.02 0.02 0.02 0.01 0.01 0.01 0.01 0.01 0.01 0.01 0.02 0.02 0.03 0.03 0.02 0.02 0.02 0.02 0.02 0.03 0.04 0.04 0.02 0.02 0.03 0.02 0.03 0.02 0.01 0.02 0.02 0.02 0.02 0.02 0.01 0.02 0.02 0.02 0.01 0.01 0.02 0.03
0.01 0.01 0.02 0.02 0.02 0.02 0.02 0.02 0.03 0.03 0.04 0.03 0.02 0.02 0.02 0.02 0.02 0.01 0.01 0.01 0.02 0.03 0.03 0.03 0.02 0.02 0.02 0.02 0.01 0.01 0.01 0.02 0.02 0.02 0.02 0.02 0.02 0.02 0.02 0.01 0.01 0.01 0.01
0.01 0.01 0.01 0.01 0.01 0.01 0.02 0.02 0.04 0.05 0.05 0.04 0.02 0.02 0.02 0.02 0.03 0.02 0.01 0.01 0.01 0.01 0.01 0.02 0.02 0.02 0.02 0.01 0.01 0.01 0.01 0.01 0.01 0.01 0.01 0.02 0.02 0.01 0.01 0.01 0.01 0.01 0.01
0.01 0.01 0.01 0.01 0.01 0.01 0.01 0.02 0.03 0.05 0.06 0.07 0.07 0.04 0.03 0.03 0.03 0.02 0.02 0.03 0.03 0.02 0.01 0.01 0.02 0.02 0.02 0.01 0.01 0.00 0.00 0.01 0.01 0.01 0.01 0.01 0.01 0.01 0.01 0.02 0.01 0.01 0.01
0.01 0.01 0.01 0.01 0.01 0.01 0.01 0.01 0.02 0.03 0.04 0.06 0.06 0.06 0.05 0.03 0.03 0.03 0.03 0.03 0.03 0.02 0.02 0.02 0.02 0.02 0.03 0.04 0.02 0.01 0.01 0.01 0.00 0.01 0.01 0.01 0.01 0.01 0.01 0.01 0.02 0.01 0.01
0.00 0.00 0.00 0.00 0.01 0.01 0.01 0.02 0.02 0.02 0.03 0.05 0.05 0.07 0.08 0.07 0.06 0.05 0.05 0.05 0.03 0.03 0.03 0.03 0.03 0.04 0.05 0.04 0.02 0.01 0.01 0.01 0.01 0.01 0.00 0.01 0.01 0.00 0.00 0.01 0.01 0.01 0.02
0.00 0.00 0.00 0.00 0.00 0.01 0.01 0.02 0.03 0.04 0.05 0.06 0.06 0.07 0.07 0.06 0.06 0.07 0.06 0.05 0.05 0.04 0.04 0.03 0.03 0.03 0.03 0.03 0.03 0.02 0.02 0.01 0.01 0.01 0.01 0.00 0.00 0.00 0.01 0.01 0.02 0.02 0.02
0.00 0.00 0.00 0.00 0.00 0.01 0.01 0.02 0.04 0.04 0.04 0.07 0.08 0.09 0.10 0.09 0.07 0.06 0.05 0.05 0.05 0.05 0.04 0.04 0.03 0.03 0.03 0.03 0.03 0.02 0.02 0.02 0.01 0.01 0.01 0.00 0.01 0.01 0.01 0.01 0.01 0.01 0.02
0.00 0.00 0.00 0.01 0.01 0.01 0.02 0.03 0.04 0.04 0.05 0.07 0.09 0.10 0.11 0.11 0.09 0.06 0.05 0.05 0.05 0.06 0.06 0.05 0.05 0.05 0.04 0.03 0.03 0.02 0.02 0.02 0.02 0.01 0.01 0.01 0.01 0.01 0.01 0.01 0.01 0.01 0.02
0.01 0.01 0.01 0.01 0.01 0.01 0.02 0.03 0.04 0.06 0.07 0.07 0.07 0.09 0.11 0.10 0.09 0.07 0.05 0.05 0.04 0.05 0.07 0.08 0.07 0.06 0.04 0.02 0.03 0.03 0.02 0.02 0.02 0.01 0.01 0.01 0.01 0.01 0.02 0.02 0.02 0.02 0.02
0.01 0.02 0.02 0.01 0.01 0.01 0.02 0.03 0.04 0.07 0.13 0.14 0.10 0.08 0.07 0.06 0.07 0.07 0.07 0.07 0.05 0.05 0.06 0.05 0.05 0.04 0.03 0.03 0.03 0.03 0.03 0.02 0.01 0.01 0.01 0.01 0.01 0.01 0.02 0.03 0.03 0.02 0.01
MSLP
1009.85 1010.23 1010.48 1010.61 1010.64 1010.63 1010.62 1010.65 1010.77 1010.97 1011.25 1011.58 1011.93 1012.25 1012.50 1012.68 1012.78 1012.83 1012.85 1012.87 1012.94 1013.07 1013.27 1013.54 1013.87 1014.22 1014.57 1014.90 1015.19 1015.42 1015.59 1015.70 1015.75 1015.74 1015.67 1015.53 1015.34 1015.07 1014.76 1014.41 1014.05 1013.72 1013.46
1009.70 1010.20 1010.55 1010.75 1010.82 1010.80 1010.76 1010.74 1010.82 1010.99 1011.27 1011.62 1012.01 1012.36 1012.66 1012.85 1012.95 1012.96 1012.93 1012.90 1012.90 1012.98 1013.14 1013.39 1013.70 1014.06 1014.42 1014.77 1015.08 1015.35 1015.57 1015.74 1015.86 1015.93 1015.94 1015.87 1015.71 1015.45 1015.09 1014.66 1014.18 1013.70 1013.28
1009.32 1009.95 1010.45 1010.77 1010.94 1010.97 1010.95 1010.93 1010.97 1011.12 1011.38 1011.73 1012.12 1012.49 1012.80 1013.00 1013.08 1013.07 1013.00 1012.92 1012.87 1012.90 1013.03 1013.25 1013.55 1013.90 1014.26 1014.62 1014.94 1015.23 1015.49 1015.71 1015.90 1016.04 1016.13 1016.14 1016.03 1015.81 1015.44 1014.97 1014.41 1013.83 1013.29
1008.65 1009.43 1010.09 1010.58 1010.90 1011.05 1011.10 1011.12 1011.17 1011.31 1011.56 1011.88 1012.26 1012.62 1012.92 1013.11 1013.19 1013.16 1013.06 1012.95 1012.87 1012.86 1012.95 1013.15 1013.42 1013.75 1014.10 1014.44 1014.76 1015.06 1015.33 1015.58 1015.81 1016.02 1016.18 1016.26 1016.22 1016.05 1015.72 1015.25 1014.67 1014.05 1013.44
1007.71 1008.61 1009.44 1010.12 1010.62 1010.94 1011.12 1011.22 1011.32 1011.48 1011.71 1012.02 1012.37 1012.71 1012.99 1013.17 1013.23 1013.19 1013.08 1012.96 1012.86 1012.83 1012.90 1013.07 1013.32 1013.62 1013.94 1014.25 1014.54 1014.82 1015.08 1015.34 1015.59 1015.83 1016.05 1016.19 1016.23 1016.13 1015.86 1015.44 1014.90 1014.29 1013.67
1006.59 1007.57 1008.54 1009.40 1010.09 1010.59 1010.93 1011.15 1011.33 1011.52 1011.76 1012.06 1012.38 1012.70 1012.96 1013.13 1013.19 1013.15 1013.05 1012.92 1012.82 1012.79 1012.85 1013.00 1013.22 1013.49 1013.77 1014.04 1014.29 1014.53 1014.75 1014.99 1015.23 1015.49 1015.73 1015.92 1016.02 1016.00 1015.82 1015.49 1015.03 1014.49 1013.92
1005.45 1006.44 1007.49 1008.49 1009.35 1010.02 1010.51 1010.86 1011.14 1011.38 1011.64 1011.94 1012.25 1012.55 1012.79 1012.96 1013.02 1012.99 1012.91 1012.80 1012.72 1012.70 1012.76 1012.90 1013.10 1013.34 1013.58 1013.81 1014.02 1014.20 1014.38 1014.56 1014.78 1015.01 1015.26 1015.48 1015.63 1015.69 1015.61 1015.39 1015.04 1014.61 1014.14
1004.45 1005.39 1006.46 1007.53 1008.50 1009.30 1009.91 1010.38 1010.73 1011.04 1011.33 1011.63 1011.94 1012.22 1012.46 1012.63 1012.71 1012.71 1012.65 1012.58 1012.53 1012.53 1012.60 1012.75 1012.94 1013.16 1013.37 1013.56 1013.72 1013.85 1013.97 1014.11 1014.27 1014.48 1014.70 1014.93 1015.13 1015.25 1015.26 1015.17 1014.95 1014.66 1014.31
1003.79 1004.62 1005.63 1006.69 1007.69 1008.54 1009.23 1009.77 1010.18 1010.53 1010.85 1011.16 1011.46 1011.75 1011.99 1012.17 1012.27 1012.30 1012.28 1012.25 1012.24 1012.27 1012.37 1012.52 1012.72 1012.93 1013.12 1013.29 1013.42 1013.51 1013.59 1013.68 1013.79 1013.96 1014.16 1014.38 1014.59 1014.77 1014.87 1014.89 1014.81 1014.65 1014.44
1003.58 1004.26 1005.16 1006.13 1007.07 1007.91 1008.60 1009.15 1009.59 1009.95 1010.28 1010.59 1010.90 1011.18 1011.43 1011.62 1011.74 1011.80 1011.83 1011.84 1011.86 1011.93 1012.05 1012.22 1012.43 1012.64 1012.84 1013.00 1013.12 1013.20 1013.26 1013.31 1013.40 1013.53 1013.70 1013.91 1014.13 1014.34 1014.51 1014.62 1014.66 1014.63 1014.55
1003.88 1004.41 1005.14 1005.97 1006.79 1007.52 1008.15 1008.66 1009.07 1009.42 1009.73 1010.04 1010.34 1010.62 1010.86 1011.06 1011.20 1011.29 1011.33 1011.37 1011.43 1011.52 1011.66 1011.85 1012.07 1012.30 1012.52 1012.70 1012.84 1012.93 1013.00 1013.06 1013.14 1013.25 1013.41 1013.60 1013.83 1014.06 1014.27 1014.45 1014.58 1014.65 1014.68
1004.65 1005.03 1005.58 1006.22 1006.86 1007.46 1007.96 1008.38 1008.73 1009.03 1009.31 1009.59 1009.86 1010.13 1010.37 1010.56 1010.70 1010.79 1010.85 1010.90 1010.97 1011.07 1011.22 1011.43 1011.67 1011.92 1012.17 1012.39 1012.57 1012.71 1012.82 1012.91 1013.01 1013.13 1013.29 1013.49 1013.71 1013.95 1014.19 1014.41 1014.59 1014.74 1014.85
1005.76 1006.01 1006.39 1006.84 1007.29 1007.70 1008.06 1008.36 1008.61 1008.84 1009.07 1009.31 1009.55 1009.78 1009.99 1010.16 1010.28 1010.36 1010.41 1010.45 1010.51 1010.61 1010.75 1010.96 1011.21 1011.49 1011.78 1012.05 1012.30 1012.50 1012.68 1012.83 1012.98 1013.15 1013.33 1013.54 1013.76 1014.01 1014.26 1014.49 1014.71 1014.89 1015.05
1007.06 1007.21 1007.44 1007.71 1007.97 1008.21 1008.41 1008.57 1008.72 1008.86 1009.02 1009.20 1009.38 1009.56 1009.72 1009.85 1009.93 1009.98 1009.99 1010.01 1010.04 1010.12 1010.25 1010.45 1010.71 1011.01 1011.34 1011.66 1011.98 1012.27 1012.53 1012.77 1013.00 1013.22 1013.45 1013.68 1013.93 1014.18 1014.43 1014.67 1014.89 1015.09 1015.26
1008.38 1008.46 1008.57 1008.69 1008.79 1008.87 1008.92 1008.95 1008.99 1009.04 1009.12 1009.21 1009.32 1009.44 1009.53 1009.59 1009.62 1009.61 1009.58 1009.56 1009.55 1009.60 1009.71 1009.89 1010.15 1010.46 1010.82 1011.21 1011.59 1011.97 1012.32 1012.66 1012.98 1013.28 1013.57 1013.85 1014.12 1014.39 1014.64 1014.87 1015.09 1015.28 1015.46
1009.58 1009.62 1009.65 1009.65 1009.62 1009.57 1009.49 1009.41 1009.34 1009.30 1009.28 1009.28 1009.31 1009.33 1009.34 1009.33 1009.28 1009.21 1009.13 1009.06 1009.02 1009.03 1009.11 1009.28 1009.53 1009.86 1010.24 1010.66 1011.11 1011.56 1012.01 1012.44 1012.85 1013.24 1013.60 1013.94 1014.26 1014.55 1014.81 1015.04 1015.25 1015.43 1015.59
1010.58 1010.61 1010.58 1010.50 1010.38 1010.22 1010.04 1009.86 1009.69 1009.54 1009.43 1009.33 1009.25 1009.18 1009.10 1008.99 1008.87 1008.74 1008.61 1008.49 1008.42 1008.41 1008.48 1008.63 1008.88 1009.20 1009.60 1010.05 1010.54 1011.06 1011.57 1012.09 1012.58 1013.06 1013.50 1013.90 1014.27 1014.60 1014.88 1015.12 1015.32 1015.49 1015.63
1011.39 1011.40 1011.34 1011.20 1011.01 1010.77 1010.51 1010.24 1009.98 1009.73 1009.51 1009.30 1009.12 1008.93 1008.75 1008.57 1008.38 1008.19 1008.02 1007.88 1007.79 1007.77 1007.83 1007.99 1008.23 1008.55 1008.95 1009.42 1009.93 1010.48 1011.05 1011.62 1012.18 1012.73 1013.24 1013.71 1014.14 1014.50 1014.81 1015.07 1015.27 1015.43 1015.56
1012.02 1012.02 1011.93 1011.75 1011.51 1011.21 1010.88 1010.53 1010.18 1009.83 1009.50 1009.19 1008.89 1008.61 1008.34 1008.07 1007.83 1007.61 1007.42 1007.28 1007.20 1007.19 1007.26 1007.42 1007.66 1007.98 1008.38 1008.84 1009.35 1009.91 1010.50 1011.10 1011.71 1012.30 1012.87 1013.40 1013.87 1014.29 1014.63 1014.90 1015.11 1015.27 1015.38
1012.53 1012.52 1012.41 1012.20 1011.92 1011.57 1011.18 1010.75 1010.32 1009.88 1009.45 1009.03 1008.64 1008.26 1007.91 1007.60 1007.32 1007.08 1006.90 1006.78 1006.73 1006.75 1006.84 1007.02 1007.26 1007.58 1007.96 1008.40 1008.89 1009.43 1010.01 1010.62 1011.24 1011.86 1012.46 1013.03 1013.54 1013.99 1014.36 1014.65 1014.87 1015.02 1015.11
1012.98 1012.95 1012.82 1012.59 1012.27 1011.88 1011.43 1010.95 1010.44 1009.92 1009.40 1008.90 1008.42 1007.98 1007.58 1007.23 1006.94 1006.72 1006.56 1006.48 1006.47 1006.54 1006.66 1006.86 1007.11 1007.42 1007.78 1008.19 1008.64 1009.14 1009.69 1010.27 1010.88 1011.50 1012.10 1012.68 1013.20 1013.67 1014.05 1014.35 1014.56 1014.70 1014.77
1013.39 1013.34 1013.19 1012.94 1012.59 1012.17 1011.68 1011.14 1010.57 1009.99 1009.42 1008.86 1008.33 1007.85 1007.43 1007.08 1006.80 1006.61 1006.49 1006.46 1006.51 1006.62 1006.78 1007.00 1007.26 1007.55 1007.88 1008.25 1008.65 1009.10 1009.59 1010.13 1010.69 1011.27 1011.85 1012.41 1012.92 1013.37 1013.74 1014.03 1014.23 1014.35 1014.39
1013.75 1013.69 1013.52 1013.24 1012.88 1012.43 1011.91 1011.35 1010.75 1010.14 1009.54 1008.96 1008.42 1007.93 1007.51 1007.18 1006.94 1006.79 1006.73 1006.75 1006.85 1007.00 1007.20 1007.43 1007.68 1007.96 1008.26 1008.58 1008.93 1009.31 1009.74 1010.20 1010.70 1011.22 1011.75 1012.25 1012.72 1013.14 1013.47 1013.73 1013.89 1013.98 1013.99
1014.03 1013.95 1013.77 1013.48 1013.10 1012.65 1012.13 1011.56 1010.97 1010.36 1009.76 1009.20 1008.68 1008.22 1007.84 1007.55 1007.36 1007.26 1007.25 1007.32 1007.45 1007.63 1007.85 1008.09 1008.34 1008.59 1008.85 1009.12 1009.41 1009.73 1010.08 1010.47 1010.89 1011.33 1011.78 1012.21 1012.61 1012.96 1013.23 1013.43 1013.55 1013.59 1013.57
1014.20 1014.10 1013.91 1013.62 1013.24 1012.80 1012.29 1011.75 1011.19 1010.62 1010.07 1009.55 1009.08 1008.68 1008.35 1008.12 1007.97 1007.92 1007.95 1008.06 1008.22 1008.41 1008.64 1008.86 1009.10 1009.32 1009.54 1009.77 1010.00 1010.26 1010.54 1010.86 1011.19 1011.54 1011.90 1012.24 1012.54 1012.80 1013.00 1013.12 1013.18 1013.17 1013.11
1014.23 1014.11 1013.91 1013.62 1013.26 1012.85 1012.39 1011.90 1011.39 1010.88 1010.40 1009.95 1009.55 1009.21 1008.95 1008.77 1008.67 1008.66 1008.72 1008.84 1009.00 1009.20 1009.41 1009.62 1009.82 1010.02 1010.20 1010.39 1010.58 1010.78 1011.00 1011.24 1011.50 1011.76 1012.02 1012.25 1012.46 1012.62 1012.72 1012.77 1012.77 1012.71 1012.62
Thickness
5825 5823 5820 5817 5811 5806 5802 5799 5795 5793 5791 5788 5785 5782 5781 5782 5781 5781 5779 5777 5775 5774 5772 5770 5768 5767 5765 5764 5764 5761 5760 5759 5759 5755 5752 5755 5758 5757 5757 5757 5756 5755 5754
5826 5823 5821 5818 5813 5807 5804 5800 5797 5795 5793 5790 5788 5786 5784 5783 5782 5781 5779 5778 5776 5774 5773 5770 5768 5767 5765 5763 5762 5761 5758 5758 5759 5753 5746 5742 5745 5751 5756 5755 5754 5754 5753
5829 5825 5823 5820 5816 5810 5807 5805 5800 5797 5795 5793 5791 5789 5786 5783 5781 5779 5778 5778 5776 5774 5773 5770 5768 5766 5765 5762 5761 5760 5757 5753 5756 5756 5748 5740 5736 5741 5747 5750 5752 5752 5751
5837 5831 5826 5822 5819 5815 5812 5808 5803 5800 5797 5795 5791 5787 5782 5778 5779 5779 5778 5778 5777 5775 5772 5770 5768 5766 5764 5762 5760 5760 5758 5755 5751 5753 5754 5751 5747 5738 5736 5743 5748 5749 5749
5843 5836 5831 5828 5825 5821 5816 5810 5805 5801 5799 5796 5792 5788 5785 5783 5782 5780 5778 5776 5776 5775 5773 5770 5767 5764 5763 5761 5760 5758 5757 5755 5752 5750 5750 5749 5748 5746 5737 5733 5738 5742 5745
5846 5841 5837 5832 5827 5824 5818 5812 5805 5800 5798 5795 5792 5788 5785 5782 5780 5778 5775 5775 5775 5774 5773 5771 5767 5764 5762 5760 5758 5757 5755 5753 5752 5751 5749 5747 5744 5742 5739 5734 5734 5734 5738
5848 5842 5836 5831 5826 5822 5818 5812 5804 5799 5797 5795 5792 5789 5786 5783 5780 5777 5775 5774 5773 5772 5771 5770 5766 5763 5761 5759 5757 5755 5753 5752 5750 5749 5748 5748 5747 5746 5743 5737 5733 5731 5733
5850 5845 5839 5833 5827 5823 5818 5813 5805 5799 5797 5794 5791 5789 5787 5784 5782 5779 5777 5775 5773 5772 5771 5768 5765 5762 5760 5758 5756 5754 5753 5751 5749 5748 5747 5746 5746 5746 5743 5738 5732 5726 5726
5851 5846 5842 5836 5829 5822 5816 5811 5805 5800 5797 5795 5792 5789 5786 5783 5781 5779 5777 5775 5773 5772 5769 5766 5763 5761 5758 5756 5755 5752 5750 5749 5747 5746 5746 5744 5744 5744 5742 5739 5735 5726 5719
5850 5846 5841 5836 5829 5823 5818 5812 5807 5801 5798 5795 5792 5789 5785 5783 5781 5778 5774 5772 5771 5769 5766 5764 5761 5758 5756 5754 5752 5750 5749 5746 5745 5744 5742 5741 5741 5739 5738 5736 5733 5729 5722
5848 5844 5838 5836 5831 5824 5819 5812 5806 5801 5797 5794 5791 5788 5784 5782 5779 5775 5772 5770 5768 5766 5763 5761 5758 5756 5753 5751 5749 5747 5745 5743 5741 5741 5739 5737 5736 5734 5733 5732 5730 5726 5722
5847 5843 5838 5833 5829 5823 5818 5812 5807 5802 5798 5794 5790 5786 5783 5780 5776 5772 5770 5768 5765 5762 5760 5758 5755 5752 5750 5748 5745 5743 5742 5739 5737 5736 5734 5732 5732 5729 5727 5726 5724 5721 5719
5841 5839 5834 5829 5825 5821 5816 5812 5807 5802 5798 5794 5788 5784 5780 5777 5773 5770 5768 5765 5762 5759 5757 5755 5751 5749 5747 5745 5742 5740 5738 5736 5734 5732 5729 5727 5725 5722 5722 5720 5718 5716 5715
5833 5830 5826 5823 5821 5818 5814 5810 5806 5802 5797 5792 5786 5781 5778 5774 5771 5767 5765 5762 5759 5756 5753 5751 5748 5746 5743 5741 5739 5737 5734 5732 5730 5728 5725 5722 5720 5717 5716 5714 5712 5710 5707
5824 5820 5817 5816 5814 5812 5810 5807 5803 5799 5795 5789 5783 5779 5776 5772 5768 5764 5761 5758 5755 5753 5750 5747 5744 5742 5739 5737 5734 5732 5730 5727 5725 5722 5720 5717 5714 5712 5710 5708 5705 5703 5699
5818 5815 5813 5811 5809 5806 5804 5801 5798 5795 5791 5785 5779 5776 5771 5767 5763 5760 5757 5754 5751 5748 5745 5742 5740 5737 5735 5731 5728 5726 5725 5722 5719 5716 5714 5712 5709 5707 5704 5701 5699 5697 5693
5812 5810 5808 5806 5804 5802 5800 5795 5792 5790 5785 5780 5775 5772 5768 5762 5758 5756 5752 5749 5746 5743 5740 5738 5735 5731 5727 5725 5723 5721 5719 5717 5714 5712 5710 5709 5706 5702 5699 5696 5693 5691 5688
5806 5804 5803 5801 5801 5800 5796 5793 5789 5784 5779 5774 5771 5767 5763 5758 5754 5751 5747 5744 5742 5738 5735 5733 5730 5727 5723 5719 5717 5715 5714 5712 5709 5707 5705 5702 5698 5696 5692 5690 5687 5685 5682
5802 5800 5800 5798 5796 5793 5791 5786 5781 5777 5773 5768 5765 5762 5758 5753 5749 5745 5742 5740 5736 5733 5731 5729 5725 5721 5717 5713 5711 5708 5708 5706 5704 5701 5699 5696 5692 5689 5686 5683 5681 5678 5676
5797 5795 5794 5791 5787 5785 5783 5778 5774 5770 5766 5764 5760 5757 5753 5749 5744 5741 5738 5735 5732 5729 5726 5724 5721 5717 5712 5707 5704 5701 5701 5700 5698 5695 5692 5689 5686 5682 5680 5677 5674 5671 5669
5789 5788 5785 5781 5778 5778 5775 5768 5765 5762 5761 5759 5755 5752 5748 5744 5741 5737 5734 5731 5727 5724 5721 5718 5716 5712 5708 5703 5699 5695 5693 5693 5691 5689 5686 5682 5678 5675 5673 5670 5668 5665 5663
5779 5778 5774 5771 5771 5770 5766 5760 5757 5756 5755 5752 5748 5745 5742 5740 5737 5731 5727 5724 5720 5717 5714 5711 5708 5706 5703 5698 5693 5689 5686 5684 5683 5682 5680 5676 5671 5668 5665 5663 5661 5659 5656
5768 5768 5765 5762 5761 5761 5757 5751 5750 5749 5746 5742 5738 5736 5734 5732 5729 5724 5719 5716 5713 5710 5707 5704 5701 5699 5697 5693 5688 5683 5680 5678 5676 5675 5673 5669 5665 5661 5658 5656 5654 5651 5649
5757 5758 5755 5751 5749 5750 5749 5746 5743 5740 5737 5733 5730 5729 5726 5723 5720 5716 5713 5710 5707 5704 5702 5699 5695 5693 5690 5687 5682 5678 5674 5670 5668 5666 5664 5661 5658 5655 5653 5650 5647 5645 5644
5748 5747 5745 5742 5740 5741 5740 5738 5736 5732 5728 5725 5723 5720 5719 5716 5712 5709 5706 5703 5702 5699 5696 5693 5689 5685 5682 5680 5677 5673 5670 5667 5663 5659 5656 5654 5651 5649 5648 5646 5644 5642 5640
5737 5737 5735 5733 5733 5732 5730 5730 5728 5725 5721 5718 5716 5714 5713 5711 5707 5703 5699 5696 5694 5691 5689 5687 5683 5679 5676 5673 5670 5666 5664 5660 5656 5652 5650 5649 5648 5646 5645 5642 5640 5638 5636